TEVEL-6 (50999 NORAD) Tracking and Keplerian Element Data

This shows tracking and keplerian element data for the satellite.

Feedback or suggestion? Click here.




ElementValue
Catalog50999
NameTEVEL-6
Epoch Orbit13373
Epoch Day160.15644963
Epoch Year2024
RAAN236.9331
Inclination97.3746
Eccentricity0.0003355
Argument of Perigee245.0052
Mean Anonmoly115.0863
Mean Motion15.71774141
Decay Rate0.0028713
L11 50999U 22002R 24160.15644963 .00287130 00000+0 21524-2 0 9995
L22 50999 97.3746 236.9331 0003355 245.0052 115.0863 15.71774141133730



Live tracking and technical data element details for TEVEL-6 (NORAD 50999). TEVEL-6 can be tracked NOW for your location showing map with azimuth and elevation plus other details from your city location.







IsCatalogInMostPopularTable: catalog: 50999, numindb: 73
Update: records affected: 1



GetName: 50999 TEVEL-6

Hit Count: updated at: Thu, 23 Jan 2025 17:28:09 GMT